Williams, AZ

12:42 PM MST on February 22, 2018 (GMT -0700)
Williams

Weather History for KCMR - November, 2012

Change the Weather History Date:

Thursday, November 1, 2012

  Actual Average (K40G) Record (K40G)
Temperature  
Mean Temperature 48 °F -  
Max Temperature 64 °F 52 °F 61 °F (1996)
Min Temperature 33 °F 44 °F 37 °F (1996)
Degree Days  
Heating Degree Days 16    
Moisture  
Dew Point 9 °F    
Average Humidity 22    
Maximum Humidity 44    
Minimum Humidity 10    
Precipitation  
Precipitation 0.00 in - - ()
Sea Level Pressure  
Sea Level Pressure 30.23 in    
Wind  
Wind Speed 8 mph (South)    
Max Wind Speed 14 mph    
Max Gust Speed 21 mph    
Visibility 9 miles    
Events      
Averages and records for this station are not official NWS values.
T = Trace of Precipitation, MM = Missing Value Source: NWS Daily Summary

Daily Weather History Graph

Daily Weather History Graph

Search for Another Location

Airport or City:

Trip Planner

Search our weather history database for the weather conditions in past years. The results will help you decide how hot, cold, wet, or windy it might be!

Date:

Astronomy

Nov. 01, 2012 Rise Set
Actual Time 6:50 AM MST 5:33 PM MST
Civil Twilight 6:24 AM MST 5:59 PM MST
Nautical Twilight 5:54 AM MST 6:29 PM MST
Astronomical Twilight 5:24 AM MST 6:59 PM MST
Moon 7:38 PM MST (11/1) 9:21 AM MST (11/1)
Length of Visible Light 11h 35m
Length of Day
10h 42m
Waning Gibbous, 92% of the Moon is Illuminated
Nov 1
Waning Gibbous
Nov 6
Last Quarter
Nov 13
New
Nov 20
First Quarter
Nov 28
Full

Hourly Weather History & Observations

Time (MST) Temp. Windchill Dew Point Humidity Pressure Visibility Wind Dir Wind Speed Gust Speed Precip Events Conditions
12:15 AM 33.8 °F 27.0 °F 14.0 °F 44% 30.30 in 5.0 mi South 8.1 mph - N/A   Clear
12:35 AM 35.6 °F 29.2 °F 14.0 °F 41% 30.30 in 3.0 mi SSE 8.1 mph - N/A   Clear
12:55 AM 35.6 °F 28.0 °F 14.0 °F 41% 30.29 in 4.0 mi South 10.4 mph - N/A   Clear
1:15 AM 35.6 °F 26.6 °F 14.0 °F 41% 30.29 in 4.0 mi SSE 13.8 mph - N/A   Clear
2:15 PM 64.4 °F - 5.0 °F 10% 30.22 in 10.0 mi SSW 11.5 mph 20.7 mph N/A   Clear
2:35 PM 62.6 °F - 5.0 °F 10% 30.22 in 10.0 mi South 12.7 mph 18.4 mph N/A   Clear
2:55 PM 64.4 °F - 6.8 °F 10% 30.22 in 10.0 mi SW 10.4 mph 19.6 mph N/A   Clear
3:15 PM 64.4 °F - 6.8 °F 10% 30.22 in 10.0 mi SSW 9.2 mph - N/A   Clear
3:35 PM 62.6 °F - 8.6 °F 12% 30.21 in 10.0 mi SW 8.1 mph - N/A   Clear
3:55 PM 62.6 °F - 6.8 °F 11% 30.21 in 10.0 mi SSW 11.5 mph - N/A   Clear
4:15 PM 60.8 °F - 5.0 °F 11% 30.21 in 10.0 mi SW 11.5 mph 17.3 mph N/A   Clear
4:35 PM 59.0 °F - 5.0 °F 12% 30.21 in 10.0 mi WSW 5.8 mph - N/A   Clear
4:55 PM 59.0 °F - 5.0 °F 12% 30.21 in 10.0 mi SW 9.2 mph - N/A   Clear
5:15 PM 59.0 °F - 6.8 °F 13% 30.21 in 10.0 mi SW 4.6 mph - N/A   Clear
5:35 PM 57.2 °F - 6.8 °F 13% 30.21 in 10.0 mi SW 5.8 mph - N/A   Clear
5:55 PM 55.4 °F - 6.8 °F 14% 30.21 in 10.0 mi SW 3.5 mph - N/A   Clear
6:15 PM 53.6 °F - 6.8 °F 15% 30.21 in 10.0 mi SSW 5.8 mph - N/A   Clear
6:35 PM 53.6 °F - 6.8 °F 15% 30.22 in 10.0 mi SSW 6.9 mph - N/A   Clear
6:55 PM 53.6 °F - 6.8 °F 15% 30.22 in 10.0 mi SSW 5.8 mph - N/A   Clear
7:15 PM 53.6 °F - 6.8 °F 15% 30.22 in 10.0 mi SW 5.8 mph - N/A   Clear
7:35 PM 51.8 °F - 8.6 °F 18% 30.22 in 10.0 mi SW 5.8 mph - N/A   Clear
7:55 PM 50.0 °F - 8.6 °F 19% 30.22 in 10.0 mi South 5.8 mph - N/A   Clear
8:15 PM 50.0 °F - 8.6 °F 19% 30.22 in 10.0 mi SSW 5.8 mph - N/A   Clear
8:35 PM 42.8 °F 39.3 °F 8.6 °F 25% 30.23 in 10.0 mi SSE 5.8 mph - N/A   Clear
8:55 PM 41.0 °F 37.1 °F 10.4 °F 29% 30.23 in 10.0 mi SSE 5.8 mph - N/A   Clear
9:15 PM 41.0 °F 36.4 °F 10.4 °F 29% 30.23 in 10.0 mi SSE 6.9 mph - N/A   Clear
9:35 PM 42.8 °F 39.3 °F 10.4 °F 27% 30.23 in 10.0 mi SSE 5.8 mph - N/A   Clear
9:55 PM 41.0 °F 36.4 °F 10.4 °F 29% 30.23 in 10.0 mi SSE 6.9 mph - N/A   Clear
10:15 PM 41.0 °F 35.8 °F 10.4 °F 29% 30.23 in 10.0 mi SSE 8.1 mph - N/A   Clear
10:35 PM 39.2 °F 34.2 °F 12.2 °F 33% 30.22 in 10.0 mi SSE 6.9 mph - N/A   Clear
10:55 PM 41.0 °F 36.4 °F 12.2 °F 31% 30.22 in 7.0 mi SSE 6.9 mph - N/A   Clear
11:15 PM 41.0 °F 36.4 °F 12.2 °F 31% 30.22 in 6.0 mi SSE 6.9 mph - N/A   Clear
11:35 PM 39.2 °F 33.6 °F 12.2 °F 33% 30.23 in 5.0 mi SSE 8.1 mph - N/A   Clear
11:55 PM 39.2 °F 34.2 °F 12.2 °F 33% 30.23 in 5.0 mi SSE 6.9 mph - N/A   Clear